EN

Hourly Weather Alsozsolca

Today, 25 January, Monday

Time Temperature Precipitation Wind Pressure Humidity
00:00 0°C° 1.7 mm 4 mps 736 mmHg 93%
01:00 0°C° 1.7 mm 4 mps 735 mmHg 97%
02:00 0°C° 3.5 mm 4 mps 735 mmHg 97%
03:00 0°C° 3.5 mm 4 mps 734 mmHg 98%
04:00 0°C° 3.5 mm 5 mps 734 mmHg 98%
05:00 0°C° 2.3 mm 5 mps 734 mmHg 98%
06:00 -2°C° 2.3 mm 6 mps 734 mmHg 97%
07:00 -2°C° 2.3 mm 6 mps 734 mmHg 97%
08:00 0°C° 0.1 mm 5 mps 738 mmHg 84%
09:00 -1°C° 0.1 mm 6 mps 738 mmHg 81%
10:00 -1°C° 0.1 mm 6 mps 738 mmHg 78%
11:00 -1°C° 0.1 mm 6 mps 738 mmHg 75%
12:00 +1°C° 0.1 mm 6 mps 738 mmHg 73%
13:00 0°C° 0.1 mm 7 mps 738 mmHg 70%
14:00 +1°C° 0.1 mm 6 mps 738 mmHg 72%
15:00 0°C° 0.1 mm 5 mps 739 mmHg 73%
16:00 0°C° 0.1 mm 4 mps 740 mmHg 75%
17:00 0°C° 0 mm 4 mps 740 mmHg 74%
18:00 +1°C° 0 mm 3 mps 741 mmHg 74%
19:00 0°C° 0 mm 3 mps 742 mmHg 73%
20:00 0°C° 0 mm 3 mps 742 mmHg 72%
21:00 0°C° 0 mm 3 mps 743 mmHg 71%
22:00 0°C° 0 mm 3 mps 744 mmHg 70%
23:00 -1°C° 0 mm 3 mps 744 mmHg 69%

Tomorrow, 26 January, Tuesday

Time Temperature Precipitation Wind Pressure Humidity
00:00 -1°C° 0 mm 3 mps 745 mmHg 68%
01:00 -2°C° 0 mm 4 mps 745 mmHg 67%
02:00 -2°C° 0 mm 4 mps 745 mmHg 67%
03:00 -2°C° 0 mm 4 mps 746 mmHg 67%
04:00 -2°C° 0 mm 4 mps 746 mmHg 67%
05:00 -3°C° 0 mm 4 mps 747 mmHg 67%
06:00 -2°C° 0 mm 3 mps 747 mmHg 68%
07:00 -2°C° 0 mm 3 mps 747 mmHg 68%
08:00 -2°C° 0 mm 4 mps 748 mmHg 63%
09:00 -1°C° 0 mm 4 mps 748 mmHg 58%
10:00 0°C° 0 mm 5 mps 748 mmHg 52%
11:00 0°C° 0 mm 5 mps 748 mmHg 53%
12:00 +1°C° 0 mm 5 mps 748 mmHg 55%
13:00 +1°C° 0 mm 6 mps 749 mmHg 56%
14:00 +1°C° 0 mm 5 mps 749 mmHg 61%
15:00 0°C° 0 mm 4 mps 749 mmHg 67%
16:00 0°C° 0 mm 3 mps 749 mmHg 72%
17:00 0°C° 0 mm 3 mps 749 mmHg 75%
18:00 -1°C° 0 mm 3 mps 750 mmHg 78%
19:00 -2°C° 0 mm 2 mps 750 mmHg 80%
20:00 -2°C° 0 mm 2 mps 750 mmHg 78%
21:00 -2°C° 0 mm 2 mps 751 mmHg 76%
22:00 -2°C° 0 mm 2 mps 751 mmHg 74%
23:00 -2°C° 0 mm 2 mps 751 mmHg 73%

Day after tomorrow, 27 January, Wednesday

Time Temperature Precipitation Wind Pressure Humidity
00:00 -2°C° 0 mm 2 mps 751 mmHg 73%
01:00 -2°C° 0 mm 2 mps 751 mmHg 72%
02:00 0°C° 0 mm 1 mps 751 mmHg 73%
03:00 0°C° 0 mm 1 mps 751 mmHg 73%
04:00 -1°C° 0 mm 1 mps 751 mmHg 74%
05:00 -1°C° 0 mm 1 mps 751 mmHg 75%
06:00 -1°C° 0 mm 1 mps 751 mmHg 77%
07:00 -1°C° 0 mm 1 mps 751 mmHg 78%
08:00 -2°C° 0 mm 2 mps 751 mmHg 74%
09:00 -1°C° 0 mm 2 mps 751 mmHg 71%
10:00 -1°C° 0 mm 2 mps 751 mmHg 68%
11:00 0°C° 0 mm 3 mps 751 mmHg 66%
12:00 +1°C° 0 mm 3 mps 751 mmHg 65%
13:00 +1°C° 0 mm 3 mps 750 mmHg 64%
14:00 +1°C° 0 mm 3 mps 750 mmHg 68%
15:00 +1°C° 0 mm 2 mps 750 mmHg 73%
16:00 +1°C° 0 mm 2 mps 750 mmHg 77%
17:00 +1°C° 0.1 mm 2 mps 750 mmHg 81%
18:00 -1°C° 0.1 mm 2 mps 750 mmHg 85%
19:00 -1°C° 0.1 mm 3 mps 750 mmHg 88%
20:00 -1°C° 0.4 mm 3 mps 750 mmHg 91%
21:00 -1°C° 0.4 mm 3 mps 750 mmHg 93%
22:00 -3°C° 0.4 mm 4 mps 750 mmHg 96%
23:00 -2°C° 0.6 mm 3 mps 750 mmHg 96%

28 January, Thursday

Time Temperature Precipitation Wind Pressure Humidity
00:00 -2°C° 0.6 mm 3 mps 750 mmHg 96%
01:00 -2°C° 0.6 mm 3 mps 749 mmHg 97%
02:00 -2°C° 0.2 mm 2 mps 749 mmHg 97%
03:00 -2°C° 0.2 mm 2 mps 749 mmHg 97%
04:00 0°C° 0.2 mm 1 mps 750 mmHg 97%
05:00 0°C° 0 mm 1 mps 750 mmHg 96%
06:00 -1°C° 0 mm 1 mps 750 mmHg 96%
07:00 -1°C° 0 mm 1 mps 750 mmHg 95%
08:00 0°C° 0 mm 1 mps 751 mmHg 92%
09:00 0°C° 0 mm 1 mps 751 mmHg 89%
10:00 0°C° 0 mm 0 mps 751 mmHg 86%
11:00 0°C° 0 mm 0 mps 751 mmHg 85%
12:00 +2°C° 0 mm 1 mps 751 mmHg 83%
13:00 +2°C° 0 mm 1 mps 750 mmHg 81%
14:00 +2°C° 0 mm 1 mps 750 mmHg 85%
15:00 +1°C° 0 mm 1 mps 750 mmHg 88%
16:00 -1°C° 0 mm 2 mps 749 mmHg 91%
17:00 -1°C° 0.4 mm 2 mps 749 mmHg 93%
18:00 -1°C° 0.4 mm 2 mps 749 mmHg 95%
19:00 -1°C° 0.4 mm 2 mps 749 mmHg 97%

29 January, Friday

Time Temperature Precipitation Wind Pressure Humidity

30 January, Saturday

Time Temperature Precipitation Wind Pressure Humidity
Show more